Year,Month,Day,Hour,Minute,Value (Times are PST for temperature in C)
2015,07,07,07,55,15.30
2015,07,07,07,56,15.30
2015,07,07,07,57,15.30
2015,07,07,07,58,15.30
2015,07,07,07,59,15.30
2015,07,07,08,00,15.30
2015,07,07,08,01,15.30
2015,07,07,08,02,15.30
2015,07,07,08,03,15.30
2015,07,07,08,04,15.30
2015,07,07,08,05,15.30
2015,07,07,08,06,15.30
2015,07,07,08,07,15.30
2015,07,07,08,08,15.30
2015,07,07,08,09,15.30
2015,07,07,08,10,15.30
2015,07,07,08,11,15.30
2015,07,07,08,12,15.30
2015,07,07,08,13,15.30
2015,07,07,08,14,15.30
2015,07,07,08,15,15.30
2015,07,07,08,16,15.30
2015,07,07,08,17,15.30
2015,07,07,08,18,15.30
2015,07,07,08,19,15.30
2015,07,07,08,20,15.30
2015,07,07,08,21,15.30
2015,07,07,08,22,15.30
2015,07,07,08,23,15.30
2015,07,07,08,24,15.30
2015,07,07,08,25,15.30
2015,07,07,08,26,15.30
2015,07,07,08,27,15.30
2015,07,07,08,28,15.30
2015,07,07,08,29,15.30
2015,07,07,08,30,15.40
2015,07,07,08,31,15.40
2015,07,07,08,32,15.40
2015,07,07,08,33,15.40
2015,07,07,08,34,15.40
2015,07,07,08,35,15.40
2015,07,07,08,36,15.40
2015,07,07,08,37,15.50
2015,07,07,08,38,15.50
2015,07,07,08,39,15.50
2015,07,07,08,40,15.50
2015,07,07,08,41,15.60
2015,07,07,08,42,15.60
2015,07,07,08,43,15.60
2015,07,07,08,44,15.70
2015,07,07,08,45,15.70
2015,07,07,08,46,15.70
2015,07,07,08,47,15.80
2015,07,07,08,48,15.80
2015,07,07,08,49,15.90
2015,07,07,08,50,15.90
2015,07,07,08,51,15.90
2015,07,07,08,52,16.00
2015,07,07,08,53,16.10
2015,07,07,08,54,16.10
2015,07,07,08,55,16.10
2015,07,07,08,56,16.10
2015,07,07,08,57,16.20
2015,07,07,08,58,16.20
2015,07,07,08,59,16.30
2015,07,07,09,00,16.30
2015,07,07,09,01,16.30
2015,07,07,09,02,16.30
2015,07,07,09,03,16.30
2015,07,07,09,04,16.30
2015,07,07,09,05,16.30
2015,07,07,09,06,16.40
2015,07,07,09,07,16.40
2015,07,07,09,08,16.40
2015,07,07,09,09,16.40
2015,07,07,09,10,16.40
2015,07,07,09,11,16.40
2015,07,07,09,12,16.40
2015,07,07,09,13,16.40
2015,07,07,09,14,16.40
2015,07,07,09,15,16.40
2015,07,07,09,16,16.40
2015,07,07,09,17,16.40
2015,07,07,09,18,16.60
2015,07,07,09,19,16.60
2015,07,07,09,20,16.60
2015,07,07,09,21,16.70
2015,07,07,09,22,16.70
2015,07,07,09,23,16.70
2015,07,07,09,24,16.70
2015,07,07,09,25,16.70
2015,07,07,09,26,16.70
2015,07,07,09,27,16.70
2015,07,07,09,28,16.70
2015,07,07,09,29,16.70
2015,07,07,09,30,16.80
2015,07,07,09,31,16.80
2015,07,07,09,32,16.90
2015,07,07,09,33,16.90
2015,07,07,09,34,16.90
2015,07,07,09,35,17.00
2015,07,07,09,36,17.00
2015,07,07,09,37,17.00
2015,07,07,09,38,17.10
2015,07,07,09,39,17.10
2015,07,07,09,40,17.20
2015,07,07,09,41,17.20
2015,07,07,09,42,17.20
2015,07,07,09,43,17.20
2015,07,07,09,44,17.20
2015,07,07,09,45,17.20
2015,07,07,09,46,17.20
2015,07,07,09,47,17.10
2015,07,07,09,48,17.10
2015,07,07,09,49,17.10
2015,07,07,09,50,17.10
2015,07,07,09,51,17.10
2015,07,07,09,52,17.10
2015,07,07,09,53,17.10
2015,07,07,09,54,17.10
2015,07,07,09,55,17.10
2015,07,07,09,56,17.10
2015,07,07,09,57,17.10
2015,07,07,09,58,17.00
2015,07,07,09,59,16.90
2015,07,07,10,00,16.90
2015,07,07,10,01,17.00
2015,07,07,10,02,17.00
2015,07,07,10,03,17.10
2015,07,07,10,04,17.10
2015,07,07,10,05,17.10
2015,07,07,10,06,17.10
2015,07,07,10,07,17.10
2015,07,07,10,08,17.20
2015,07,07,10,09,17.30
2015,07,07,10,10,17.30
2015,07,07,10,11,17.30
2015,07,07,10,12,17.30
2015,07,07,10,13,17.30
2015,07,07,10,14,17.30
2015,07,07,10,15,17.20
2015,07,07,10,16,17.20
2015,07,07,10,17,17.10
2015,07,07,10,18,17.10
2015,07,07,10,19,17.20
2015,07,07,10,20,17.20
2015,07,07,10,21,17.30
2015,07,07,10,22,17.30
2015,07,07,10,23,17.30
2015,07,07,10,24,17.20
2015,07,07,10,25,17.10
2015,07,07,10,26,17.10
2015,07,07,10,27,17.10
2015,07,07,10,28,17.00
2015,07,07,10,29,17.00
2015,07,07,10,30,16.90
2015,07,07,10,31,16.90
2015,07,07,10,32,16.80
2015,07,07,10,33,16.80
2015,07,07,10,34,16.70
2015,07,07,10,35,16.70
2015,07,07,10,36,16.70
2015,07,07,10,37,16.60
2015,07,07,10,38,16.60
2015,07,07,10,39,16.60
2015,07,07,10,40,16.50
2015,07,07,10,41,16.50
2015,07,07,10,42,16.60
2015,07,07,10,43,16.60
2015,07,07,10,44,16.60
2015,07,07,10,45,16.50
2015,07,07,10,46,16.40
2015,07,07,10,47,16.40
2015,07,07,10,48,16.50
2015,07,07,10,49,16.60
2015,07,07,10,50,16.60
2015,07,07,10,51,16.60
2015,07,07,10,52,16.70
2015,07,07,10,53,16.70
2015,07,07,10,54,16.70
2015,07,07,10,55,16.70
2015,07,07,10,56,16.70
2015,07,07,10,57,16.70
2015,07,07,10,58,16.70
2015,07,07,10,59,16.70
2015,07,07,11,00,16.80
2015,07,07,11,01,16.80
2015,07,07,11,02,16.90
2015,07,07,11,03,17.00
2015,07,07,11,04,17.00
2015,07,07,11,05,17.10
2015,07,07,11,06,17.10
2015,07,07,11,07,17.20
2015,07,07,11,08,17.30
2015,07,07,11,09,17.30
2015,07,07,11,10,17.30
2015,07,07,11,11,17.30
2015,07,07,11,12,17.40
2015,07,07,11,13,17.40
2015,07,07,11,14,17.30
2015,07,07,11,15,17.30
2015,07,07,11,16,17.30
2015,07,07,11,17,17.30
2015,07,07,11,18,17.30
2015,07,07,11,19,17.40
2015,07,07,11,20,17.40
2015,07,07,11,21,17.40
2015,07,07,11,22,17.30
2015,07,07,11,23,17.30
2015,07,07,11,24,17.30
2015,07,07,11,25,17.30
2015,07,07,11,26,17.30
2015,07,07,11,27,17.30
2015,07,07,11,28,17.40
2015,07,07,11,29,17.40
2015,07,07,11,30,17.50
2015,07,07,11,31,17.50
2015,07,07,11,32,17.60
2015,07,07,11,33,17.70
2015,07,07,11,34,17.70
2015,07,07,11,35,17.70
2015,07,07,11,36,17.60
2015,07,07,11,37,17.70
2015,07,07,11,38,17.70
2015,07,07,11,39,17.70
2015,07,07,11,40,17.50
2015,07,07,11,41,17.40
2015,07,07,11,42,17.30
2015,07,07,11,43,17.20
2015,07,07,11,44,17.00
2015,07,07,11,45,16.90
2015,07,07,11,46,16.80
2015,07,07,11,47,16.70
2015,07,07,11,48,16.70
2015,07,07,11,49,16.70
2015,07,07,11,50,16.70
2015,07,07,11,51,16.80
2015,07,07,11,52,16.90
2015,07,07,11,53,17.00
2015,07,07,11,54,17.10
2015,07,07,11,55,17.10
2015,07,07,11,56,17.10
2015,07,07,11,57,17.10
2015,07,07,11,58,17.10
2015,07,07,11,59,17.20
2015,07,07,12,00,17.30
2015,07,07,12,01,17.30
2015,07,07,12,02,17.30
2015,07,07,12,03,17.40
2015,07,07,12,04,17.40
2015,07,07,12,05,17.40
2015,07,07,12,06,17.40
2015,07,07,12,07,17.40
2015,07,07,12,08,17.30
2015,07,07,12,09,17.30
2015,07,07,12,10,17.20
2015,07,07,12,11,17.30
2015,07,07,12,12,17.30
2015,07,07,12,13,17.40
2015,07,07,12,14,17.40
2015,07,07,12,15,17.40
2015,07,07,12,16,17.50
2015,07,07,12,17,17.60
2015,07,07,12,18,17.60
2015,07,07,12,19,17.60
2015,07,07,12,20,17.50
2015,07,07,12,21,17.50
2015,07,07,12,22,17.30
2015,07,07,12,23,17.30
2015,07,07,12,24,17.30
2015,07,07,12,25,17.20
2015,07,07,12,26,17.10
2015,07,07,12,27,16.90
2015,07,07,12,28,16.90
2015,07,07,12,29,16.80
2015,07,07,12,30,16.80
2015,07,07,12,31,16.80
2015,07,07,12,32,16.80
2015,07,07,12,33,16.80
2015,07,07,12,34,16.70
2015,07,07,12,35,16.70
2015,07,07,12,36,16.70
2015,07,07,12,37,16.70
2015,07,07,12,38,16.80
2015,07,07,12,39,16.90
2015,07,07,12,40,17.00
2015,07,07,12,41,17.10
2015,07,07,12,42,17.30
2015,07,07,12,43,17.30
2015,07,07,12,44,17.40
2015,07,07,12,45,17.50
2015,07,07,12,46,17.40
2015,07,07,12,47,17.50
2015,07,07,12,48,17.60
2015,07,07,12,49,17.70
2015,07,07,12,50,17.70
2015,07,07,12,51,17.70
2015,07,07,12,52,17.70
2015,07,07,12,53,17.60
2015,07,07,12,54,17.50
2015,07,07,12,55,17.50
2015,07,07,12,56,17.50
2015,07,07,12,57,17.60
2015,07,07,12,58,17.60
2015,07,07,12,59,17.60
2015,07,07,13,00,17.60
2015,07,07,13,01,17.60
2015,07,07,13,02,17.60
2015,07,07,13,03,17.60
2015,07,07,13,04,17.60
2015,07,07,13,05,17.50
2015,07,07,13,06,17.50
2015,07,07,13,07,17.60
2015,07,07,13,08,17.60
2015,07,07,13,09,17.60
2015,07,07,13,10,17.60
2015,07,07,13,11,17.60
2015,07,07,13,12,17.60
2015,07,07,13,13,17.60
2015,07,07,13,14,17.60
2015,07,07,13,15,17.70
2015,07,07,13,16,17.70
2015,07,07,13,17,17.70
2015,07,07,13,18,17.80
2015,07,07,13,19,17.90
2015,07,07,13,20,17.90
2015,07,07,13,21,17.90
2015,07,07,13,22,17.90
2015,07,07,13,23,18.00
2015,07,07,13,24,18.10
2015,07,07,13,25,18.10
2015,07,07,13,26,18.10
2015,07,07,13,27,18.00
2015,07,07,13,28,17.90
2015,07,07,13,29,18.00
2015,07,07,13,30,18.10
2015,07,07,13,31,18.20
2015,07,07,13,32,18.30
2015,07,07,13,33,18.40
2015,07,07,13,34,18.40
2015,07,07,13,35,18.50
2015,07,07,13,36,18.50
2015,07,07,13,37,18.60
2015,07,07,13,38,18.70
2015,07,07,13,39,18.80
2015,07,07,13,40,18.80
2015,07,07,13,41,18.80
2015,07,07,13,42,18.90
2015,07,07,13,43,18.90
2015,07,07,13,44,18.90
2015,07,07,13,45,18.90
2015,07,07,13,46,18.90
2015,07,07,13,47,18.90
2015,07,07,13,48,19.00
2015,07,07,13,49,19.10
2015,07,07,13,50,19.10
2015,07,07,13,51,19.10
2015,07,07,13,52,19.10
2015,07,07,13,53,19.10
2015,07,07,13,54,19.10
2015,07,07,13,55,19.10
2015,07,07,13,56,19.10
2015,07,07,13,57,19.10
2015,07,07,13,58,19.20
2015,07,07,13,59,19.20
2015,07,07,14,00,19.30
2015,07,07,14,01,19.40
2015,07,07,14,02,19.40
2015,07,07,14,03,19.40
2015,07,07,14,04,19.40
2015,07,07,14,05,19.30
2015,07,07,14,06,19.30
2015,07,07,14,07,19.30
2015,07,07,14,08,19.40
2015,07,07,14,09,19.40
2015,07,07,14,10,19.50
2015,07,07,14,11,19.50
2015,07,07,14,12,19.60
2015,07,07,14,13,19.70
2015,07,07,14,14,19.80
2015,07,07,14,15,19.80
2015,07,07,14,16,19.80
2015,07,07,14,17,19.90
2015,07,07,14,18,19.90
2015,07,07,14,19,19.90
2015,07,07,14,20,19.90
2015,07,07,14,21,19.90
2015,07,07,14,22,19.90
2015,07,07,14,23,20.00
2015,07,07,14,24,20.10
2015,07,07,14,25,20.20
2015,07,07,14,26,20.20
2015,07,07,14,27,20.20
2015,07,07,14,28,20.20
2015,07,07,14,29,20.20
2015,07,07,14,30,20.30
2015,07,07,14,31,20.40
2015,07,07,14,32,20.40
2015,07,07,14,33,20.40
2015,07,07,14,34,20.40
2015,07,07,14,35,20.40
2015,07,07,14,36,20.40
2015,07,07,14,37,20.40
2015,07,07,14,38,20.40
2015,07,07,14,39,20.40
2015,07,07,14,40,20.40
2015,07,07,14,41,20.30
2015,07,07,14,42,20.30
2015,07,07,14,43,20.20
2015,07,07,14,44,20.20
2015,07,07,14,45,20.30
2015,07,07,14,46,20.30
2015,07,07,14,47,20.20
2015,07,07,14,48,20.20
2015,07,07,14,49,20.20
2015,07,07,14,50,20.20
2015,07,07,14,51,20.20
2015,07,07,14,52,20.20
2015,07,07,14,53,20.20
2015,07,07,14,54,20.30
2015,07,07,14,55,20.30
2015,07,07,14,56,20.40
2015,07,07,14,57,20.40
2015,07,07,14,58,20.50
2015,07,07,14,59,20.50
2015,07,07,15,00,20.60
2015,07,07,15,01,20.70
2015,07,07,15,02,20.90
2015,07,07,15,03,20.90
2015,07,07,15,04,20.90
2015,07,07,15,05,20.90
2015,07,07,15,06,20.80
2015,07,07,15,07,20.80
2015,07,07,15,08,20.70
2015,07,07,15,09,20.70
2015,07,07,15,10,20.70
2015,07,07,15,11,20.70
2015,07,07,15,12,20.80
2015,07,07,15,13,20.80
2015,07,07,15,14,20.90
2015,07,07,15,15,21.00
2015,07,07,15,16,21.10
2015,07,07,15,17,21.10
2015,07,07,15,18,21.00
2015,07,07,15,19,21.00
2015,07,07,15,20,21.00
2015,07,07,15,21,21.00
2015,07,07,15,22,21.10
2015,07,07,15,23,21.00
2015,07,07,15,24,21.00
2015,07,07,15,25,20.90
2015,07,07,15,26,20.90
2015,07,07,15,27,20.90
2015,07,07,15,28,20.90
2015,07,07,15,29,20.90
2015,07,07,15,30,20.80
2015,07,07,15,31,20.80
2015,07,07,15,32,20.70
2015,07,07,15,33,20.70
2015,07,07,15,34,20.70
2015,07,07,15,35,20.60
2015,07,07,15,36,20.50
2015,07,07,15,37,20.40
2015,07,07,15,38,20.40
2015,07,07,15,39,20.40
2015,07,07,15,40,20.40
2015,07,07,15,41,20.50
2015,07,07,15,42,20.50
2015,07,07,15,43,20.50
2015,07,07,15,44,20.50
2015,07,07,15,45,20.60
2015,07,07,15,46,20.60
2015,07,07,15,47,20.60
2015,07,07,15,48,20.60
2015,07,07,15,49,20.60
2015,07,07,15,50,20.60
2015,07,07,15,51,20.60
2015,07,07,15,52,20.60
2015,07,07,15,53,20.60
2015,07,07,15,54,20.60
2015,07,07,15,55,20.60
2015,07,07,15,56,20.60
2015,07,07,15,57,20.60
2015,07,07,15,58,20.70
2015,07,07,15,59,20.70
2015,07,07,16,00,20.80
2015,07,07,16,01,20.90
2015,07,07,16,02,20.90
2015,07,07,16,03,21.00
2015,07,07,16,04,21.00
2015,07,07,16,05,21.00
2015,07,07,16,06,21.00
2015,07,07,16,07,21.00
2015,07,07,16,08,21.00
2015,07,07,16,09,21.00
2015,07,07,16,10,21.00
2015,07,07,16,11,21.00
2015,07,07,16,12,21.00
2015,07,07,16,13,21.00
2015,07,07,16,14,21.00
2015,07,07,16,15,21.00
2015,07,07,16,16,21.00
2015,07,07,16,17,21.00
2015,07,07,16,18,21.10
2015,07,07,16,19,21.10
2015,07,07,16,20,21.10
2015,07,07,16,21,21.20
2015,07,07,16,22,21.20
2015,07,07,16,23,21.20
2015,07,07,16,24,21.20
2015,07,07,16,25,21.20
2015,07,07,16,26,21.20
2015,07,07,16,27,21.30
2015,07,07,16,28,21.20
2015,07,07,16,29,21.30
2015,07,07,16,30,21.30
2015,07,07,16,31,21.30
2015,07,07,16,32,21.20
2015,07,07,16,33,21.30
2015,07,07,16,34,21.30
2015,07,07,16,35,21.30
2015,07,07,16,36,21.40
2015,07,07,16,37,21.50
2015,07,07,16,38,21.60
2015,07,07,16,39,21.60
2015,07,07,16,40,21.60
2015,07,07,16,41,21.60
2015,07,07,16,42,21.60
2015,07,07,16,43,21.60
2015,07,07,16,44,21.60
2015,07,07,16,45,21.60
2015,07,07,16,46,21.60
2015,07,07,16,47,21.60
2015,07,07,16,48,21.70
2015,07,07,16,49,21.70
2015,07,07,16,50,21.70
2015,07,07,16,51,21.70
2015,07,07,16,52,21.70
2015,07,07,16,53,21.70
2015,07,07,16,54,21.70
2015,07,07,16,55,21.70
2015,07,07,16,56,21.60
2015,07,07,16,57,21.60
2015,07,07,16,58,21.60
2015,07,07,16,59,21.70
2015,07,07,17,00,21.80
2015,07,07,17,01,21.80
2015,07,07,17,02,21.70
2015,07,07,17,03,21.80
2015,07,07,17,04,21.90
2015,07,07,17,05,21.90
2015,07,07,17,06,22.00
2015,07,07,17,07,22.00
2015,07,07,17,08,22.00
2015,07,07,17,09,21.90
2015,07,07,17,10,21.80
2015,07,07,17,11,21.80
2015,07,07,17,12,21.70
2015,07,07,17,13,21.70
2015,07,07,17,14,21.70
2015,07,07,17,15,21.70
2015,07,07,17,16,21.60
2015,07,07,17,17,21.60
2015,07,07,17,18,21.60
2015,07,07,17,19,21.60
2015,07,07,17,20,21.60
2015,07,07,17,21,21.60
2015,07,07,17,22,21.60
2015,07,07,17,23,21.60
2015,07,07,17,24,21.60
2015,07,07,17,25,21.60
2015,07,07,17,26,21.60
2015,07,07,17,27,21.50
2015,07,07,17,28,21.40
2015,07,07,17,29,21.40
2015,07,07,17,30,21.50
2015,07,07,17,31,21.50
2015,07,07,17,32,21.40
2015,07,07,17,33,21.40
2015,07,07,17,34,21.40
2015,07,07,17,35,21.30
2015,07,07,17,36,21.30
2015,07,07,17,37,21.30
2015,07,07,17,38,21.30
2015,07,07,17,39,21.20
2015,07,07,17,40,21.10
2015,07,07,17,41,21.10
2015,07,07,17,42,21.00
2015,07,07,17,43,21.00
2015,07,07,17,44,21.00
2015,07,07,17,45,21.00
2015,07,07,17,46,21.10
2015,07,07,17,47,21.10
2015,07,07,17,48,21.10
2015,07,07,17,49,21.10
2015,07,07,17,50,21.10
2015,07,07,17,51,21.20
2015,07,07,17,52,21.20
2015,07,07,17,53,21.30
2015,07,07,17,54,21.30
2015,07,07,17,55,21.30
2015,07,07,17,56,21.30
2015,07,07,17,57,21.30
2015,07,07,17,58,21.30
2015,07,07,17,59,21.40
2015,07,07,18,00,21.40
2015,07,07,18,01,21.30
2015,07,07,18,02,21.30
2015,07,07,18,03,21.30
2015,07,07,18,04,21.30
2015,07,07,18,05,21.30
2015,07,07,18,06,21.30
2015,07,07,18,07,21.30
2015,07,07,18,08,21.30
2015,07,07,18,09,21.30
2015,07,07,18,10,21.30
2015,07,07,18,11,21.30
2015,07,07,18,12,21.30
2015,07,07,18,13,21.30
2015,07,07,18,14,21.30
2015,07,07,18,15,21.30
2015,07,07,18,16,21.30
2015,07,07,18,17,21.30
2015,07,07,18,18,21.30
2015,07,07,18,19,21.30
2015,07,07,18,20,21.30
2015,07,07,18,21,21.30
2015,07,07,18,22,21.30
2015,07,07,18,23,21.20
2015,07,07,18,24,21.20
2015,07,07,18,25,21.20
2015,07,07,18,26,21.20
2015,07,07,18,27,21.20
2015,07,07,18,28,21.30
2015,07,07,18,29,21.30
2015,07,07,18,30,21.30
2015,07,07,18,31,21.30
2015,07,07,18,32,21.30
2015,07,07,18,33,21.30
2015,07,07,18,34,21.30
2015,07,07,18,35,21.30
2015,07,07,18,36,21.30
2015,07,07,18,37,21.30
2015,07,07,18,38,21.30
2015,07,07,18,39,21.30
2015,07,07,18,40,21.30
2015,07,07,18,41,21.30
2015,07,07,18,42,21.30
2015,07,07,18,43,21.40
2015,07,07,18,44,21.40
2015,07,07,18,45,21.40
2015,07,07,18,46,21.40
2015,07,07,18,47,21.40
2015,07,07,18,48,21.50
2015,07,07,18,49,21.60
2015,07,07,18,50,21.60
2015,07,07,18,51,21.60
2015,07,07,18,52,21.60
2015,07,07,18,53,21.60
2015,07,07,18,54,21.60
2015,07,07,18,55,21.60
2015,07,07,18,56,21.70
2015,07,07,18,57,21.70
2015,07,07,18,58,21.70
2015,07,07,18,59,21.70
2015,07,07,19,00,21.70
2015,07,07,19,01,21.70
2015,07,07,19,02,21.60
2015,07,07,19,03,21.60
2015,07,07,19,04,21.60
2015,07,07,19,05,21.60
2015,07,07,19,06,21.60
2015,07,07,19,07,21.60
2015,07,07,19,08,21.60
2015,07,07,19,09,21.60
2015,07,07,19,10,21.60
2015,07,07,19,11,21.50
2015,07,07,19,12,21.40
2015,07,07,19,13,21.40
2015,07,07,19,14,21.40
2015,07,07,19,15,21.30
2015,07,07,19,16,21.30
2015,07,07,19,17,21.30
2015,07,07,19,18,21.30
2015,07,07,19,19,21.30
2015,07,07,19,20,21.30
2015,07,07,19,21,21.30
2015,07,07,19,22,21.30
2015,07,07,19,23,21.30
2015,07,07,19,24,21.30
2015,07,07,19,25,21.30
2015,07,07,19,26,21.30
2015,07,07,19,27,21.30
2015,07,07,19,28,21.30
2015,07,07,19,29,21.30
2015,07,07,19,30,21.30
2015,07,07,19,31,21.30
2015,07,07,19,32,21.20
2015,07,07,19,33,21.20
2015,07,07,19,34,21.20
2015,07,07,19,35,21.20
2015,07,07,19,36,21.20
2015,07,07,19,37,21.20
2015,07,07,19,38,21.20
2015,07,07,19,39,21.20
2015,07,07,19,40,21.30
2015,07,07,19,41,21.30
2015,07,07,19,42,21.30
2015,07,07,19,43,21.30
2015,07,07,19,44,21.30
2015,07,07,19,45,21.30
2015,07,07,19,46,21.30
2015,07,07,19,47,21.30
2015,07,07,19,48,21.30
2015,07,07,19,49,21.30
2015,07,07,19,50,21.30
2015,07,07,19,51,21.30
2015,07,07,19,52,21.30
2015,07,07,19,53,21.30
2015,07,07,19,54,21.30
2015,07,07,19,55,21.20
2015,07,07,19,56,21.20
2015,07,07,19,57,21.20
2015,07,07,19,58,21.20
2015,07,07,19,59,21.10
2015,07,07,20,00,21.10
2015,07,07,20,01,21.10
2015,07,07,20,02,21.10
2015,07,07,20,03,21.10
2015,07,07,20,04,21.10
2015,07,07,20,05,21.10
2015,07,07,20,06,21.10
2015,07,07,20,07,21.10
2015,07,07,20,08,21.10
2015,07,07,20,09,21.00
2015,07,07,20,10,21.00
2015,07,07,20,11,21.00
2015,07,07,20,12,21.00
2015,07,07,20,13,21.00
2015,07,07,20,14,21.00
2015,07,07,20,15,21.00
2015,07,07,20,16,21.00
2015,07,07,20,17,20.90
2015,07,07,20,18,20.90
2015,07,07,20,19,20.90
2015,07,07,20,20,20.90
2015,07,07,20,21,20.90
2015,07,07,20,22,20.80
2015,07,07,20,23,20.80
2015,07,07,20,24,20.80
2015,07,07,20,25,20.80
2015,07,07,20,26,20.80
2015,07,07,20,27,20.80
2015,07,07,20,28,20.80
2015,07,07,20,29,20.80
2015,07,07,20,30,20.70
2015,07,07,20,31,20.70
2015,07,07,20,32,20.70
2015,07,07,20,33,20.70
2015,07,07,20,34,20.70
2015,07,07,20,35,20.70
2015,07,07,20,36,20.60
2015,07,07,20,37,20.60
2015,07,07,20,38,20.60
2015,07,07,20,39,20.50
2015,07,07,20,40,20.50
2015,07,07,20,41,20.50
2015,07,07,20,42,20.40
2015,07,07,20,43,20.40
2015,07,07,20,44,20.30
2015,07,07,20,45,20.30
2015,07,07,20,46,20.20
2015,07,07,20,47,20.20
2015,07,07,20,48,20.20
2015,07,07,20,49,20.20
2015,07,07,20,50,20.20
2015,07,07,20,51,20.20
2015,07,07,20,52,20.20
2015,07,07,20,53,20.20
2015,07,07,20,54,20.20
2015,07,07,20,55,20.10
2015,07,07,20,56,20.10
2015,07,07,20,57,20.10
2015,07,07,20,58,20.10
2015,07,07,20,59,20.10
2015,07,07,21,00,20.10
2015,07,07,21,01,20.10
2015,07,07,21,02,20.10
2015,07,07,21,03,20.10
2015,07,07,21,04,20.10
2015,07,07,21,05,20.10
2015,07,07,21,06,20.10
